    Observer details:
    104 San Marcello Pistoiese.  Observers P. Bacci, M. Maestripieri.  Measurers
        P. Bacci, L. Tesi, G. Fagioli.  0.60-m reflector + CCD.
    474 Mount John Observatory, Lake Tekapo.  Observers A. C. Gilmore,
        P. M. Kilmartin.  Measurer P. M. Kilmartin.  1.0-m f/7.7 reflector + CCD.
    595 Farra d'Isonzo.  Observers U. Montanar, E. Pettarin, F. Piani.  Measurer
        U. Montanar.  0.61-m f/4.0 reflector + CCD.
    691 Steward Observatory, Kitt Peak-Spacewatch.  Observer R. A. Mastaler.
        0.9-m f/3 reflector + CCD.
    711 McDonald Observatory, Fort Davis.  Observer J. G. Ries.  2.1-m reflector
        + CCD + focal reducer.
    926 Tenagra II Observatory, Nogales.  Observers M. Schwartz,
        P. R. Holvorcem.  Measurer M. Schwartz.  0.81-m f/7 Ritchey-Chretien +
        CCD.
    A71 Stixendorf.  Observers M. Jaeger, E. Prosperi, S. Prosperi, W. Vollmann.
        Measurer M. Jaeger.  0.3-m f/4 reflector + CCD.
    F51 Pan-STARRS 1, Haleakala.  Observers J. Bulger, T. Lowe, A. Schultz,
        M. Willman.  Measurers K. Chambers, S. Chastel, L. Denneau, H. Flewelling,
        M. Huber, E. Magnier, Y. Ramanjooloo, R. Wainscoat, R. Weryk.  1.8-m
        Ritchey-Chretien + CCD.
    G40 Slooh.com Canary Islands Observatory.  Observer B. Lutkenhoner.  0.5-m
        f/6.8 Corrected Dall-Kirkham + CCD.
    G96 Mt. Lemmon Survey.  Observer B. M. Africano.  Measurers B. M. Africano,
        E. J. Christensen, G. A. Farneth, D. C. Fuls, A. R. Gibbs, A. D. Grauer,
        H. Groeller, J. A. Johnson, R. A. Kowalski, S. M. Larson, G. J. Leonard,
        R. L. Seaman, F. C. Shelly.  1.5-m reflector + 10K CCD.
    I52 Steward Observatory, Mt. Lemmon Station.  Observers G. J. Leonard,
        R. A. Kowalski, E. J. Christensen, D. C. Fuls.  Measurers B. M. Africano,
        E. J. Christensen, G. A. Farneth, D. C. Fuls, A. R. Gibbs, A. D. Grauer,
        H. Groeller, J. A. Johnson, R. A. Kowalski, S. M. Larson, G. J. Leonard,
        R. L. Seaman, F. C. Shelly.  1.0-m reflector + CCD.
    K63 G. Pascoli Observatory, Castelvecchio Pascoli.  Observer R. Bacci.
        0.41-m f/3.2 Newtonian reflector + CCD.
    K88 GINOP-KHK, Piszkesteto.  Observer K. Sarneczky.  0.60-m Schmidt + CCD.
    L01 Visnjan Observatory, Tican.  Observer K. Korlevic.  1.0-m f/2.9 reflector
        + CCD.
    L27 29PREMOTE Observatory, Dauban.  Observer J.-F. Soulier.  0.20-m f/4
        Newtonian reflector + CCD.
    Q62 iTelescope Observatory, Siding Spring.  Observer H. Sato.  0.43-m f/6.8
        astrograph + CCD.
    
    Orbital elements:
        C/2018 R3 (Lemmon)
    Epoch 2019 June 6.0 TT = JDT 2458640.5
    T 2019 June 7.18212 TT                                  MPCW
    q   1.2905679            (2000.0)            P               Q
    z  +0.0004677      Peri.  112.87485     -0.13202501     -0.82928094
     +/-0.0002185      Node   324.62533     +0.10167933     +0.53358815
    e   0.9993964      Incl.   69.71399     +0.98601760     -0.16606266
    From 75 observations 2018 Aug. 8-Sept. 16, mean residual 0".4.
    
        C/2018 R3 (Lemmon)
    Epoch 2018 Mar. 23.0 TT = JDT 2458200.5
    T 2019 June 7.20415 TT                                  MPCW
    q   1.2904987            (2000.0)            P               Q
    z  +0.0005974      Peri.  112.88116     -0.13221157     -0.82923420
     +/-0.0002185      Node   324.62605     +0.10159897     +0.53362536
    e   0.9992291      Incl.   69.72419     +0.98600089     -0.16617646
    From 75 observations 2018 Aug. 8-Sept. 16, mean residual 0".4.
    
    Ephemeris:
        C/2018 R3 (Lemmon)
    Date    TT    R. A. (2000) Decl.     Delta      r     Elong.  Phase   m1    m2
    2018 08 17    21 48 56.2 -10 03 59   2.9609  3.9719   176.3     0.9  19.8
    ...
    2018 09 01    21 29 38.0 -09 36 55   2.8454  3.8208   162.7     4.5  19.6
    ...
    2018 09 09    21 19 23.9 -09 20 04   2.8159  3.7396   152.7     7.1  19.5
    ...
    2018 09 15    21 12 04.5 -09 05 55   2.8074  3.6785   145.2     9.0  19.4
    2018 09 16    21 10 53.9 -09 03 25   2.8070  3.6683   144.0     9.3  19.4
    2018 09 17    21 09 44.0 -09 00 52   2.8069  3.6580   142.7     9.6  19.4
    ...
    2018 09 23    21 03 04.7 -08 44 41   2.8122  3.5966   135.4    11.3  19.3
    ...
    2018 10 01    20 55 13.2 -08 20 33   2.8327  3.5143   125.9    13.4  19.2
    ...
    2018 10 16    20 44 13.3 -07 26 52   2.9021  3.3588   108.8    16.3  19.1
    
    Gareth V. Williams           (C) Copyright 2018 MPC           M.P.E.C. 2018-S04
    

    Read MPEC 2018-S03 Read MPEC 2018-S05


    MPEC number:

    Enter an MPEC number in one of the following forms:

    • 1997-B01 (the full form)
    • J97B01 (the packed version of the full form)
    • B01 (the abbreviated form)